Regional Weather Roundup
Issued by NWS

Home | Current Version | Previous Version | Text Only | Print | Product List | Glossary On
Versions: 1 2 3 4 5 6 7 8 9 10 11 12 13 14 15 16 17 18 19 20 21 22 23 24 25 26 27 28 29 30 31 32 33 34 35 36 37 38 39 40 41 42 43 44 45 46 47 48 49 50
000
ASUS43 KDMX 232206
RWRIA

WEATHER ROUNDUP FOR IOWA
NATIONAL WEATHER SERVICE DES MOINES IA
500 PM CDT WED AUG 23 2017

NOTE: "FAIR" INDICATES FEW OR NO CLOUDS BELOW 12,000 FEET WITH NO
SIGNIFICANT WEATHER AND/OR OBSTRUCTIONS TO VISIBILITY.

* - THESE STATIONS ARE NOT NWS STATIONS...THUS NOT UNDER NWS
QUALITY CONTROL.  THEY ALSO DO NOT REPORT WEATHER SUCH
AS PRECIPITATION OR FOG.

IAZ001>003-012>014-020>022-031>034-043>046-232300-
   NORTHWEST IOWA

CITY           SKY/WX    TMP DP  RH WIND       PRES   REMARKS
CARROLL *      SUNNY     77  57  50 W3        30.07F
CHEROKEE *     MOSUNNY   77  56  47 S6        30.05F
DENISON *      SUNNY     77  57  50 CALM      30.08F
LE MARS *      MOSUNNY  N/A N/A N/A S14       30.03F
ORANGE CITY *  SUNNY     79  61  53 S9        30.04F HX  80
SHELDON *      SUNNY     77  59  53 VRB7G13   30.03F
SIOUX CITY     SUNNY     78  61  55 S10       30.04F HX  80
SPENCER        MOSUNNY   76  52  43 CALM      30.06F
STORM LAKE *   SUNNY     73  57  56 S6        30.07F
$$

IAZ055>058-069>071-079>083-090>094-232300-
   SOUTHWEST IOWA

CITY           SKY/WX    TMP DP  RH WIND       PRES   REMARKS
ATLANTIC *     SUNNY     77  54  44 CALM      30.07F
AUDUBON *      SUNNY     77  55  47 W3        30.09F
CLARINDA *     SUNNY     79  55  44 CALM      30.10S
COUNCIL BLFS * SUNNY     77  57  50 VRB5      30.07F
CRESTON *      SUNNY     77  52  41 CALM      30.09F
HARLAN  *      SUNNY     75  57  53 CALM      30.11F
LAMONI         SUNNY     80  53  39 N6        30.07F HX  80
RED OAK *      SUNNY     77  55  47 CALM      30.08F
SHENANDOAH *   SUNNY     77  57  50 W6        30.08F
$$

IAZ047>049-059>061-072>074-084-232300-
   CENTRAL IOWA

CITY           SKY/WX    TMP DP  RH WIND       PRES   REMARKS
AMES           SUNNY     76  55  48 NW6       30.07F
ANKENY *       SUNNY     77  52  41 VRB5      30.08F
BOONE *        SUNNY     77  54  44 W8        30.07S
CHARITON *     SUNNY     77  52  41 NW7       30.07F
DES MOINES     MOSUNNY   80  48  32 VRB3      30.06F
GRINNELL*      SUNNY     74  52  47 N3        30.08F
KNOXVILLE *    SUNNY     77  50  38 CALM      30.06S
MARSHALLTOWN   SUNNY     76  52  43 NW8       30.06F
NEWTON *       SUNNY     75  52  43 N6        30.07F
PELLA *        SUNNY     78  48  34 NW6       30.08F
PERRY *          N/A     77  50  38 CALM      30.07F
$$

IAZ004>006-015-016-023>025-035-036-232300-
   NORTH CENTRAL IOWA

CITY           SKY/WX    TMP DP  RH WIND       PRES   REMARKS
ALGONA *       SUNNY     75  52  43 CALM      30.07F
CLARION *      SUNNY     75  52  43 CALM      30.07F
ESTHERVILLE    MOSUNNY   74  53  48 MISG      30.06F
MASON CITY     SUNNY     75  49  39 NW6       30.08F
FOREST CITY *    N/A     73  46  38 CALM      30.07F
WEBSTER CITY * SUNNY     77  55  47 CALM      30.05F
IOWA FALLS *     N/A     76  51  41 N5        30.08F
$$

IAZ007>011-017>019-026>030-037>042-050>054-066-232300-
   NORTHEAST IOWA

CITY           SKY/WX    TMP DP  RH WIND       PRES   REMARKS
CEDAR RAPIDS   SUNNY     77  50  38 N7        30.05F
CHARLES CITY * SUNNY     75  50  41 NW7       30.07F
CLINTON *      SUNNY     74  53  48 N12       30.05S
DECORAH *      MOSUNNY   73  52  46 NW12G17   30.04F
DUBUQUE        MOSUNNY   74  52  46 NW12      30.05F
MONTICELLO *   PTSUNNY   75  54  46 N6        30.05S
OELWEIN *      MOSUNNY   73  50  43 NW9G15    30.07S
WATERLOO       SUNNY     76  48  37 NW9       30.05F
$$

IAZ064-065-067-068-078-232300-
   EAST CENTRAL IOWA

CITY           SKY/WX    TMP DP  RH WIND       PRES   REMARKS
DAVENPORT      MOSUNNY   75  51  43 NW10      30.06F
IOWA CITY      MOSUNNY   79  50  36 N10G17    30.06F
MT. PLEASANT * MOSUNNY   76  47  35 N8        30.06F
MUSCATINE *    MOSUNNY   79  48  34 NW9       30.05F
QUAD CITIES    CLOUDY    78  49  35 NW14G21   30.04S
$$

IAZ062-063-075>077-085>089-095>099-232300-
   SOUTHEAST IOWA

CITY           SKY/WX    TMP DP  RH WIND       PRES   REMARKS
BURLINGTON     MOSUNNY   77  52  41 N3        30.06F
FAIRFIELD *    SUNNY     77  50  38 NW10      30.06F
FORT MADISON * SUNNY     75  54  46 CALM      30.07S
KEOKUK *       SUNNY     77  52  41 NW6G13    30.05F
OSKALOOSA *      N/A     77  49  37 NW7       30.07F
CENTERVILLE *    N/A     75  50  41 CALM      30.09S
OTTUMWA        SUNNY     78  48  34 VRB3      30.07F
WASHINGTON *   SUNNY     75  52  43 NW8       30.07F
$$

ABBREVIATIONS USED IN REMARKS
   TC - TEMPERATURES IN CELSIUS
  WCI - WIND CHILL INDEX
   HX - HEAT INDEX
  VSB - VISIBILITY
$$




USA.gov is the U.S. government's official web portal to all federal, state and local government web resources and services.